Kuiper-00186

operational
NORAD ID: 67140 Int'l Des: 2025-301 Owner: KUIP Country: US Constellation: kuiper
LEOCIRCULAR

Kuiper-00186について

説明を読み込み中...

リアルタイム位置

3D地球を読み込み中...

次回通過

高度履歴

Altitude vs Time

uPlot chart will show altitude changes over time

軌道要素

1 67140C 25301H 25350.77888889 .00015092 00000+0 43717-3 0 3509
2 67140 51.8677 105.6461 0007512 105.1916 106.5144 15.34932480 16
Epoch: Dec 16, 2025 • Age: 68 hours

現在のステータス

高度 466.1 km
速度 7.63 km/s
衛星直下点 -8.97°S, 65.13°E
打ち上げ日 Dec 16, 2025
運用期間 2 days
タイプ internet

技術仕様

分類 Payload
質量 490.00 kg
乾燥質量 490.00 kg
総質量 490.00 kg
長さ 1.80 m
直径 0.70 m
スパン 5.00 m
形状 Box + 2 pan
製造者 KUIP
バスタイプ Kuiper
フェーズステータス In Orbit
所有者/国 KUIP/US

大規模コンステレーション

Loading constellations...